Marshall, TX

2:47 PM CDT on October 18, 2019 (GMT -0500)
Harrison County

Weather History for KASL - August, 2019

Change the Weather History Date:

Sunday, August 11, 2019

  Actual Average (KGGG) Record (KGGG)
Temperature  
Mean Temperature 84 °F -  
Max Temperature 97 °F 91 °F 111 °F (1936)
Min Temperature 72 °F 70 °F 56 °F (1931)
Cooling Degree Days 20    
Growing Degree Days 34 (Base 50)    
Moisture  
Dew Point 71 °F    
Average Humidity 68    
Maximum Humidity 92    
Minimum Humidity 36    
Precipitation  
Precipitation 0.00 in - - ()
Sea Level Pressure  
Sea Level Pressure 29.98 in    
Wind  
Wind Speed 1 mph (SW)    
Max Wind Speed 9 mph    
Max Gust Speed -    
Visibility 10 miles    
Events      
Averages and records for this station are not official NWS values.
T = Trace of Precipitation, MM = Missing Value Source: NWS Daily Summary

Daily Weather History Graph

Daily Weather History Graph

Search for Another Location

Airport or City:

Astronomy

Aug. 11, 2019 Rise Set
Actual Time 6:38 AM CDT 8:06 PM CDT
Civil Twilight 6:12 AM CDT 8:32 PM CDT
Nautical Twilight 5:40 AM CDT 9:03 PM CDT
Astronomical Twilight 5:07 AM CDT 9:36 PM CDT
Moon 5:38 PM CDT (8/11) 3:06 AM CDT (8/11)
Length of Visible Light 14h 20m
Length of Day
13h 27m
Waxing Gibbous, 87% of the Moon is Illuminated
Aug 11
Waxing Gibbous
Aug 15
Full
Aug 23
Last Quarter
Aug 30
New
Sep 5
First Quarter

Hourly Weather History & Observations

Time (CDT) Temp. Heat Index Dew Point Humidity Pressure Visibility Wind Dir Wind Speed Gust Speed Precip Events Conditions
12:15 AM 76.3 °F - 71.2 °F 84% 29.98 in 10.0 mi Calm Calm - N/A   Clear
12:35 AM 75.7 °F - 71.4 °F 86% 29.98 in 10.0 mi Calm Calm - N/A   Clear
12:55 AM 76.1 °F - 71.8 °F 86% 29.98 in 10.0 mi Calm Calm - N/A   Clear
1:15 AM 75.2 °F - 71.2 °F 87% 29.98 in 10.0 mi Calm Calm - N/A   Clear
1:35 AM 75.2 °F - 71.1 °F 87% 29.97 in 10.0 mi Calm Calm - N/A   Clear
1:55 AM 75.2 °F - 71.4 °F 88% 29.97 in 10.0 mi North - - N/A   Clear
2:15 AM 75.2 °F - 71.6 °F 89% 29.96 in 10.0 mi Calm Calm - N/A   Clear
2:35 AM 73.0 °F - 70.0 °F 90% 29.97 in 10.0 mi North - - N/A   Clear
2:55 AM 75.2 °F - 72.0 °F 90% 29.96 in 10.0 mi North - - N/A   Clear
3:15 AM 75.2 °F - 71.6 °F 89% 29.97 in 10.0 mi North - - N/A   Clear
3:35 AM 75.2 °F - 71.8 °F 89% 29.97 in 10.0 mi North - - N/A   Clear
3:55 AM 75.2 °F - 72.0 °F 90% 29.97 in 10.0 mi North - - N/A   Clear
4:15 AM 75.2 °F - 72.1 °F 90% 29.97 in 10.0 mi North - - N/A   Clear
4:35 AM 73.2 °F - 70.5 °F 91% 29.97 in 10.0 mi North - - N/A   Clear
4:55 AM 72.5 °F - 69.8 °F 91% 29.97 in 10.0 mi North - - N/A   Clear
5:15 AM 72.7 °F - 70.2 °F 92% 29.98 in 10.0 mi North - - N/A   Clear
5:35 AM 73.0 °F - 70.3 °F 91% 29.98 in 10.0 mi Calm Calm - N/A   Clear
5:55 AM 72.5 °F - 70.2 °F 92% 29.99 in 7.0 mi North - - N/A   Clear
6:15 AM 72.5 °F - 70.2 °F 92% 30.00 in 10.0 mi North - - N/A   Clear
6:35 AM 72.5 °F - 70.2 °F 92% 30.01 in 7.0 mi North - - N/A   Clear
6:55 AM 72.5 °F - 70.2 °F 92% 30.01 in 7.0 mi North - - N/A   Clear
7:15 AM 75.2 °F - 72.5 °F 91% 30.02 in 7.0 mi North - - N/A   Clear
7:35 AM 75.2 °F - 72.5 °F 91% 30.03 in 7.0 mi North - - N/A   Clear
7:55 AM 76.3 °F - 72.9 °F 89% 30.04 in 10.0 mi North - - N/A   Clear
8:15 AM 77.9 °F - 73.6 °F 86% 30.04 in 10.0 mi North - - N/A   Clear
8:35 AM 82.2 °F 89.6 °F 75.9 °F 81% 30.04 in 10.0 mi North - - N/A   Clear
8:55 AM 85.1 °F 95.4 °F 76.6 °F 76% 30.04 in 10.0 mi North - - N/A   Clear
9:15 AM 85.1 °F 93.7 °F 75.2 °F 72% 30.05 in 10.0 mi North - - N/A   Clear
9:35 AM 85.1 °F 92.9 °F 74.3 °F 70% 30.04 in 10.0 mi SW 8.1 mph - N/A   Clear
9:55 AM 85.8 °F 93.0 °F 73.2 °F 66% 30.04 in 10.0 mi North - - N/A   Clear
10:15 AM 88.7 °F 98.7 °F 75.0 °F 64% 30.04 in 10.0 mi North - - N/A   Clear
10:35 AM 90.0 °F 100.7 °F 75.2 °F 62% 30.04 in 10.0 mi North - - N/A   Clear
10:55 AM 90.0 °F 99.0 °F 73.9 °F 59% 30.04 in 10.0 mi SW 6.9 mph - N/A   Clear
11:15 AM 90.0 °F 97.9 °F 73.0 °F 57% 30.04 in 10.0 mi North - - N/A   Clear
11:35 AM 91.6 °F 101.1 °F 73.8 °F 56% 30.04 in 10.0 mi North - - N/A   Clear
11:55 AM 92.5 °F 100.7 °F 72.5 °F 52% 30.04 in 10.0 mi SW 9.2 mph - N/A   Clear
12:15 PM 92.5 °F 99.6 °F 71.6 °F 50% 30.03 in 10.0 mi North - - N/A   Clear
12:35 PM 92.5 °F 99.6 °F 71.6 °F 50% 30.02 in 10.0 mi North - - N/A   Clear
12:55 PM 93.2 °F 102.4 °F 73.4 °F 52% 30.01 in 10.0 mi North - - N/A   Scattered Clouds
1:15 PM 95.0 °F 104.5 °F 73.0 °F 49% 30.00 in 10.0 mi North - - N/A   Scattered Clouds
1:35 PM 95.0 °F 102.5 °F 71.1 °F 46% 30.00 in 10.0 mi North - - N/A   Clear
1:55 PM 95.0 °F 100.7 °F 69.3 °F 43% 30.00 in 10.0 mi North - - N/A   Clear
2:15 PM 95.0 °F 101.3 °F 69.8 °F 44% 29.99 in 10.0 mi North - - N/A   Clear
2:35 PM 95.4 °F 101.4 °F 69.6 °F 43% 29.98 in 10.0 mi North - - N/A   Clear
2:55 PM 97.2 °F 102.5 °F 68.4 °F 39% 29.98 in 10.0 mi North - - N/A   Scattered Clouds
3:15 PM 96.3 °F 102.6 °F 69.4 °F 42% 29.97 in 10.0 mi North - - N/A   Scattered Clouds
3:35 PM 96.4 °F 100.0 °F 66.2 °F 37% 29.97 in 10.0 mi North - - N/A   Clear
3:55 PM 97.5 °F 102.6 °F 68.2 °F 38% 29.96 in 10.0 mi North - - N/A   Clear
4:15 PM 96.4 °F 100.6 °F 66.7 °F 38% 29.96 in 10.0 mi North - - N/A   Clear
4:35 PM 97.0 °F 101.0 °F 66.7 °F 37% 29.96 in 10.0 mi North - - N/A   Clear
4:55 PM 96.4 °F 99.4 °F 65.7 °F 36% 29.95 in 10.0 mi North - - N/A   Clear
5:15 PM 96.4 °F 99.4 °F 65.7 °F 36% 29.95 in 10.0 mi SW 3.5 mph - N/A   Clear
5:35 PM 96.3 °F 100.2 °F 66.7 °F 38% 29.95 in 10.0 mi North - - N/A   Clear
5:55 PM 96.3 °F 100.8 °F 67.8 °F 39% 29.94 in 10.0 mi North - - N/A   Clear
6:15 PM 95.4 °F 99.7 °F 67.3 °F 40% 29.94 in 10.0 mi North - - N/A   Clear
6:35 PM 95.5 °F 100.0 °F 67.6 °F 40% 29.94 in 10.0 mi North - - N/A   Scattered Clouds
7:15 PM 92.5 °F 96.9 °F 68.0 °F 45% 29.93 in 10.0 mi North - - N/A   Clear
7:35 PM 92.5 °F 100.1 °F 71.8 °F 51% 29.94 in 10.0 mi North - - N/A   Clear
7:55 PM 90.0 °F 96.4 °F 71.4 °F 54% 29.94 in 10.0 mi North - - N/A   Clear
8:15 PM 89.6 °F 98.2 °F 73.6 °F 59% 29.94 in 10.0 mi North - - N/A   Clear
8:35 PM 85.1 °F 92.2 °F 73.4 °F 68% 29.95 in 10.0 mi North - - N/A   Clear
8:55 PM 85.1 °F 92.9 °F 74.5 °F 70% 29.95 in 10.0 mi Calm Calm - N/A   Clear
9:15 PM 85.1 °F 94.1 °F 75.4 °F 73% 29.96 in 10.0 mi North - - N/A   Clear
9:35 PM 82.4 °F 89.0 °F 74.5 °F 77% 29.96 in 10.0 mi North - - N/A   Clear
9:55 PM 82.4 °F 88.7 °F 74.1 °F 76% 29.95 in 10.0 mi North - - N/A   Clear
10:15 PM 82.4 °F 88.4 °F 73.9 °F 75% 29.95 in 10.0 mi North - - N/A   Clear
10:35 PM 82.4 °F 88.4 °F 73.9 °F 75% 29.95 in 10.0 mi North - - N/A   Clear
10:55 PM 81.5 °F 86.9 °F 73.8 °F 77% 29.96 in 10.0 mi North - - N/A   Clear
11:15 PM 78.8 °F - 72.3 °F 80% 29.96 in 10.0 mi North - - N/A   Clear
11:35 PM 77.4 °F - 72.1 °F 84% 29.95 in 10.0 mi North - - N/A   Clear
11:55 PM 77.4 °F - 72.3 °F 84% 29.95 in 10.0 mi North - - N/A   Clear